Location: Metacom Observatory
(41.7315°N, 71.2698°W)
Time: 04:07:51
(UTC-04:00)

Tiangong 2 - Visible Passes

Search period start: 21 July 2018 00:00
Search period end: 31 July 2018 00:00
Orbit: 386 x 394 km, 42.8° (Epoch: 21 July)

Date Brightness Start Highest point End Pass type
(mag) Time Alt. Az. Time Alt. Az. Time Alt. Az.
21 Jul 2.7 22:18:34 10° W 22:20:44 25° SW 22:20:44 25° SW visible
22 Jul 1.7 21:20:41 10° W 21:23:44 42° SSW 21:25:28 21° SE visible
23 Jul 3.3 22:00:34 10° WSW 22:02:32 15° SSW 22:02:33 15° SSW visible
24 Jul 2.7 21:02:19 10° W 21:05:00 25° SSW 21:07:21 12° SSE visible
26 Jul 3.6 20:44:22 10° WSW 20:46:09 14° SW 20:47:56 10° S visible
